OE3XAM-13 Weather Reports


time (UTC)temp
C
wind
direction
speed
KPH
gust
KPH
rain 1hr
cm
rain 24hr
cm
rain mn
cm
humidity
%
barometer
mb
20260507061128 12 0 3.2 0.0 0.00 0.00 0.00 66 976.0
20260507054128 12 0 3.2 0.0 0.00 0.00 0.00 65 977.0
20260507051128 12 0 1.6 0.0 0.00 0.00 0.00 66 976.0
20260507044128 11 0 4.8 0.0 0.00 0.00 0.00 70 976.0
20260507041128 10 0 1.6 0.0 0.00 0.00 0.00 74 976.0
20260507034128 10 0 0.0 0.0 0.00 0.00 0.00 75 976.0
20260507031128 10 0 1.6 0.0 0.00 0.00 0.00 74 975.0
20260507024128 11 0 1.6 0.0 0.00 0.00 0.00 73 975.0
20260507021128 11 0 0.0 0.0 0.00 0.00 0.00 70 976.0
20260507014128 12 0 0.0 0.0 0.00 0.00 0.00 67 975.0
20260507011128 12 0 6.4 0.0 0.00 0.00 0.00 70 975.0
20260507004128 12 0 0.0 0.0 0.00 0.00 0.00 67 975.0
20260507001128 12 0 6.4 0.0 0.00 0.00 0.00 68 975.0
20260506234128 13 0 3.2 0.0 0.00 0.00 0.00 69 975.0
20260506231128 14 0 6.4 0.0 0.00 0.00 0.00 65 975.0
20260506224128 14 0 9.7 0.0 0.00 0.00 0.00 63 974.0
20260506221128 14 0 1.6 0.0 0.00 0.00 0.00 66 973.0
20260506214128 15 0 4.8 0.0 0.00 0.00 0.00 65 974.0
20260506211128 16 0 6.4 0.0 0.00 0.00 0.00 61 972.0
20260506204128 16 0 12.9 0.0 0.00 0.00 0.00 57 971.0
20260506201128 16 0 12.9 0.0 0.00 0.00 0.00 53 971.0
20260506194128 17 0 3.2 0.0 0.00 0.00 0.00 48 970.0
20260506191128 21 0 12.9 0.0 0.00 0.00 0.00 34 968.0
20260506184128 21 0 1.6 0.0 0.00 0.00 0.00 34 968.0
20260506181128 22 0 1.6 0.0 0.00 0.00 0.00 33 967.0
20260506174128 22 0 6.4 0.0 0.00 0.00 0.00 31 967.0
20260506171128 23 0 6.4 0.0 0.00 0.00 0.00 31 967.0
20260506164128 24 0 8.0 0.0 0.00 0.00 0.00 28 967.0
20260506161128 25 0 11.3 0.0 0.00 0.00 0.00 28 967.0
20260506154128 25 0 3.2 0.0 0.00 0.00 0.00 30 967.0
20260506151128 25 0 3.2 0.0 0.00 0.00 0.00 29 967.0
20260506144128 25 0 3.2 0.0 0.00 0.00 0.00 28 967.0
20260506141128 26 0 9.7 0.0 0.00 0.00 0.00 26 968.0
20260506134128 27 0 4.8 0.0 0.00 0.00 0.00 25 968.0
20260506131128 27 0 3.2 0.0 0.00 0.00 0.00 28 968.0
20260506124128 26 0 3.2 0.0 0.00 0.00 0.00 31 969.0
20260506121128 25 0 8.0 0.0 0.00 0.00 0.00 31 970.0
20260506114128 24 0 1.6 0.0 0.00 0.00 0.00 34 970.0
20260506111128 23 0 3.2 0.0 0.00 0.00 0.00 35 970.0
20260506104128 23 0 3.2 0.0 0.00 0.00 0.00 36 970.0
20260506101128 23 0 3.2 0.0 0.00 0.00 0.00 37 971.0
20260506094128 23 0 1.6 0.0 0.00 0.00 0.00 37 971.0
20260506091128 22 0 1.6 0.0 0.00 0.00 0.00 40 971.0
20260506084128 21 0 1.6 0.0 0.00 0.00 0.00 47 972.0
20260506081128 20 0 0.0 0.0 0.00 0.00 0.00 51 972.0
20260506071128 17 0 4.8 0.0 0.00 0.00 0.00 60 973.0